Location: ????????
(56.0167°N, 38.0333°E)
Time: 01:31:07
(UTC+00:00)

Cosmos 1975 - Pass Details

Date: 19 May 2025
Orbit: 487 x 506 km, 82.5° (Epoch: 13 June)

Event Time Altitude Azimuth Distance (km) Brightness Sun altitude
Rises 19:30:57 0° 352° (N) 2,581 7.8 -10.3°
Reaches altitude 10° 19:33:12 10° 2° (N) 1,692 6.4 -10.5°
Maximum altitude 19:36:38 36° 70° (ENE) 801 3.6 -10.7°
Enters shadow 19:39:20 15° 133° (SE) 1,416 4.3 -10.8°
